Flag Weather past 2 weeks in Florianópolis, Santa Catarina, Brazil

Now
72 °F

Passing clouds.


Feels Like: 71 °F
Forecast: 69 / 80 °F
Wind: 3 mph from West

Location: Florianopolis Aeroporto

Current Time: Nov 28, 2014 at 4:05:16 AM

Latest Report: Nov 28, 2014 at 3:00 AM


Visibility: N/A

Pressure: 29.95 "Hg

Humidity: 83%

Dew point: 66 °F

Location of FlorianópolisLocation

Historic Weather in Florianópolis — Graph

°F

Florianópolis temperature yesterday

Maximum temperature yesterday: 81 °F (at 11:00 AM)
Minimum temperature yesterday: 70 °F (at 6:00 AM)
Average temperature yesterday: 75 °F

Past Weeks' High & Low Weather Summary

 TemperatureHumidityPressure
High90 °F (Nov 22, 5:00 PM)100% (Nov 13, 5:00 AM)30.12 "Hg (Nov 13, 5:00 AM)
Low61 °F (Nov 15, 4:00 AM)28% (Nov 17, 5:00 PM)29.68 "Hg (Nov 13, 3:00 AM)
Average73 °F73%29.94 "Hg
* Reported Nov 13 3:00 AM — Nov 28 3:00 AM, Florianópolis, Weather by CustomWeather, © 2014

Note: Actual official high and low records may vary slightly from our data, if they occured in-between our weather recording intervals... More about our weather records

Advertising

Florianópolis weather history for previous 24 hours

 ConditionsComfort  
Time TempWeatherWind HumidityBarometerVisibility
3:00 AM
Nov 28
72 °FPassing clouds.3 mph83%29.95 "HgN/A
2:00 AM72 °FPassing clouds.3 mph83%29.95 "HgN/A
1:00 AM73 °FPassing clouds.No wind78%29.98 "HgN/A
12:00 AM72 °FPassing clouds.No wind83%29.98 "HgN/A
11:00 PM
Nov 27
73 °FPassing clouds.7 mph74%29.98 "HgN/A
10:00 PM75 °FPassing clouds.7 mph74%29.98 "HgN/A
9:00 PM73 °FPassing clouds.5 mph78%29.95 "HgN/A
8:00 PM75 °FPassing clouds.7 mph74%29.95 "HgN/A
7:00 PM75 °FPartly sunny.7 mph74%29.92 "HgN/A
6:00 PM77 °FPartly sunny.10 mph69%29.89 "HgN/A
5:00 PM77 °FPartly sunny.12 mph69%29.89 "HgN/A
4:00 PM79 °FPartly sunny.13 mph70%29.89 "HgN/A
3:00 PM79 °FPartly sunny.12 mph65%29.92 "HgN/A
2:00 PM79 °FPartly sunny.13 mph65%29.92 "HgN/A
1:00 PM81 °FPartly sunny.14 mph62%29.92 "HgN/A
12:00 PM81 °FPassing clouds.10 mph58%29.92 "HgN/A
11:00 AM81 °FPassing clouds.2 mph54%29.92 "HgN/A
10:00 AM77 °FSunny.5 mph61%29.92 "Hg10 mi
9:00 AM73 °FSunny.5 mph74%29.92 "Hg10 mi
8:00 AM72 °FSunny.5 mph78%29.92 "Hg10 mi
7:00 AM70 °FSunny.5 mph83%29.89 "Hg10 mi
6:00 AM70 °FPassing clouds.6 mph83%29.89 "HgN/A
5:00 AM72 °FPassing clouds.8 mph78%29.86 "HgN/A
4:00 AM72 °FPassing clouds.10 mph78%29.86 "HgN/A
Weather by CustomWeather, © 2014

See weather overviewHow to use our weather pages